BAW268 KLAX-EGLL

Flight info

Callsign BAW268
Flight time N/A
Altitude 33000
Route OSHNN1 BEALE DCT BCE DCT CKW/N0493F350 DCT DIK DCT KOBID DCT 56N090W 5930N08000W/N0491F370 62N070W DCT TEFFO DCT KAGLY/M085F370 DCT CLAVY DCT 65N050W 64N040W 62N030W 59N020W DCT SUNOT/N0477F370 DCT KESIX DCT MIMKU DCT KELLY L10 WAL UY53 NUGRA
Aircraft A388/J-SADE2E3FGHIJ3J4J5M1RWXY/LB1D1

Departure

Time 2026-04-23 23:15
Airport Los Angeles International Airport (KLAX)

Arrival

Time N/A
Airport London Heathrow Airport (EGLL)
Time Latitude Longitude Altitude Speed Heading
2026-04-23 22:39 33.94177 -118.41102 98 ft 0 kts 83°
2026-04-23 23:02 33.94175 -118.41118 110 ft 4 kts 83°
2026-04-23 23:03 33.94172 -118.41150 111 ft 4 kts 83°
2026-04-23 23:03 33.94169 -118.41176 100 ft 4 kts 73°
2026-04-23 23:03 33.94156 -118.41198 98 ft 4 kts 17°
2026-04-23 23:03 33.94132 -118.41200 97 ft 4 kts 353°
2026-04-23 23:04 33.94105 -118.41196 97 ft 4 kts 353°
2026-04-23 23:04 33.94099 -118.41195 97 ft 1 kts 353°
2026-04-23 23:07 33.94119 -118.41198 97 ft 6 kts 353°
2026-04-23 23:07 33.94165 -118.41205 98 ft 7 kts 353°
2026-04-23 23:07 33.94216 -118.41213 98 ft 8 kts 353°
2026-04-23 23:08 33.94268 -118.41220 99 ft 8 kts 353°
2026-04-23 23:08 33.94325 -118.41229 99 ft 9 kts 353°
2026-04-23 23:08 33.94386 -118.41238 100 ft 9 kts 353°
2026-04-23 23:08 33.94452 -118.41248 100 ft 10 kts 353°
2026-04-23 23:09 33.94527 -118.41260 100 ft 12 kts 353°
2026-04-23 23:09 33.94611 -118.41273 99 ft 12 kts 353°
2026-04-23 23:09 33.94697 -118.41286 100 ft 12 kts 352°
2026-04-23 23:09 33.94773 -118.41297 100 ft 5 kts
2026-04-23 23:10 33.94785 -118.41290 100 ft 3 kts 58°
2026-04-23 23:10 33.94801 -118.41189 101 ft 16 kts 83°
2026-04-23 23:10 33.94814 -118.41073 101 ft 11 kts 82°
2026-04-23 23:10 33.94826 -118.40971 102 ft 14 kts 82°
2026-04-23 23:11 33.94840 -118.40842 99 ft 17 kts 83°
2026-04-23 23:11 33.94856 -118.40689 99 ft 20 kts 83°
2026-04-23 23:11 33.94870 -118.40548 99 ft 5 kts 85°
2026-04-23 23:11 33.94874 -118.40498 101 ft 7 kts 84°
2026-04-23 23:12 33.94880 -118.40423 101 ft 10 kts 84°
2026-04-23 23:12 33.94889 -118.40327 101 ft 13 kts 84°
2026-04-23 23:12 33.94903 -118.40210 102 ft 16 kts 83°
2026-04-23 23:12 33.94912 -118.40110 99 ft 11 kts 83°
2026-04-23 23:13 33.94921 -118.40026 99 ft 5 kts 82°
2026-04-23 23:13 33.94928 -118.39976 98 ft 7 kts 72°
2026-04-23 23:13 33.94953 -118.39924 100 ft 7 kts 44°
2026-04-23 23:13 33.94987 -118.39916 100 ft 7 kts 352°
2026-04-23 23:14 33.95023 -118.39926 100 ft 2 kts 311°
2026-04-23 23:14 33.95039 -118.39979 100 ft 11 kts 273°
2026-04-23 23:14 33.95031 -118.40068 100 ft 18 kts 263°
2026-04-23 23:14 33.94985 -118.40516 101 ft 90 kts 263°
2026-04-23 23:15 33.94884 -118.41493 103 ft 141 kts 263°
2026-04-23 23:15 33.94759 -118.42700 480 ft 142 kts 261°
2026-04-23 23:15 33.94633 -118.43933 883 ft 153 kts 263°
2026-04-23 23:15 33.94536 -118.45212 1442 ft 152 kts 265°
2026-04-23 23:16 33.94436 -118.46528 1710 ft 165 kts 264°
2026-04-23 23:16 33.94369 -118.47961 1836 ft 177 kts 266°
2026-04-23 23:16 33.94308 -118.49481 1931 ft 186 kts 266°
2026-04-23 23:16 33.94236 -118.51080 1973 ft 195 kts 264°
2026-04-23 23:17 33.94111 -118.52748 2012 ft 206 kts 264°
2026-04-23 23:17 33.93981 -118.54529 2226 ft 225 kts 264°
2026-04-23 23:17 33.93838 -118.56496 2422 ft 246 kts 264°
2026-04-23 23:17 33.93685 -118.58588 2854 ft 258 kts 264°
2026-04-23 23:18 33.93484 -118.60768 3368 ft 265 kts 256°
2026-04-23 23:18 33.92671 -118.62755 3945 ft 269 kts 228°
2026-04-23 23:18 33.91165 -118.64095 4517 ft 274 kts 200°
2026-04-23 23:18 33.89292 -118.64483 5091 ft 276 kts 176°
2026-04-23 23:19 33.87375 -118.64256 5735 ft 278 kts 171°
2026-04-23 23:19 33.85463 -118.63917 6305 ft 283 kts 168°
2026-04-23 23:19 33.83563 -118.63254 6857 ft 286 kts 154°
2026-04-23 23:19 33.81864 -118.61998 7436 ft 289 kts 143°
2026-04-23 23:20 33.80245 -118.60544 8015 ft 293 kts 143°
2026-04-23 23:20 33.78605 -118.59078 8607 ft 297 kts 145°
2026-04-23 23:20 33.76895 -118.57610 9128 ft 302 kts 147°
2026-04-23 23:20 33.75153 -118.56159 9712 ft 307 kts 148°
2026-04-23 23:21 33.73372 -118.54704 10278 ft 311 kts 148°
2026-04-23 23:21 33.71542 -118.53193 10478 ft 328 kts 144°
2026-04-23 23:21 33.69918 -118.51167 10631 ft 347 kts 123°
2026-04-23 23:21 33.68966 -118.48441 10802 ft 363 kts 101°
2026-04-23 23:22 33.68897 -118.45437 11215 ft 367 kts 79°
2026-04-23 23:22 33.69707 -118.42540 11678 ft 367 kts 59°
2026-04-23 23:22 33.71055 -118.39928 12163 ft 369 kts 53°
2026-04-23 23:22 33.72516 -118.37372 12631 ft 373 kts 53°
2026-04-23 23:23 33.73938 -118.34742 13147 ft 378 kts 55°
2026-04-23 23:23 33.75277 -118.31984 13626 ft 382 kts 58°
2026-04-23 23:23 33.76541 -118.29150 14037 ft 387 kts 59°
2026-04-23 23:23 33.77772 -118.26259 14516 ft 390 kts 60°
2026-04-23 23:24 33.78992 -118.23332 14903 ft 393 kts 60°
2026-04-23 23:24 33.80219 -118.20371 15318 ft 397 kts 60°
2026-04-23 23:24 33.81440 -118.17424 15737 ft 400 kts 60°
2026-04-23 23:24 33.82690 -118.14407 16173 ft 403 kts 60°
2026-04-23 23:25 33.83945 -118.11378 16563 ft 407 kts 60°
2026-04-23 23:25 33.85216 -118.08317 16969 ft 411 kts 60°
2026-04-23 23:25 33.86497 -118.05231 17413 ft 413 kts 60°